EHI
0 0 0 0 0 0 0 0 0 0 0 0 0 0 0 0 0 0 0 0 0 0 0 0 0 0 0 0 0 0 0 0 0 1 2 2 1 0
0 0 0 0 0 0 0 0 0 0 0 0 0 0 0 0 0 0 0 0 0 0 0 0 0 0 0 0 0 0 0 0 0 0 1 1 0 0
0 0 0 0 0 0 0 0 0 0 0 0 0 0 0 0 0 0 0 0 0 0 0 0 0 0 0 0 0 0 0 0 0 0 0 0 0 0
0 0 0 0 0 0 0 0 0 0 0 0 0 0 0 0 0 0 0 0 0 0 0 0 0 0 0 0 0 0 0 0 0 0 0 0 0 0
0 0 0 0 0 0 0 0 0 0 0 0 0 0 0 0 0 0 0 0 0 0 0 0 0 0 0 0 0 0 0 0 0 0 0 0 0 0
0 0 0 0 0 0 0 0 0 0 0 0 0 0 0 0 0 0 0 0 0 0 0 0 0 0 0 0 0 0 0 0 0 0 0 0 0 0
0 0 0 0 0 0 0 0 0 0 0 0 0 0 0 0 0 0 0 0 0 0 0 0 0 0 0 0 0 0 0 0 0 0 0 0 0 0
0 0 0 0 0 0 0 0 0 0 0 0 0 0 0 0 0 0 0 0 0 0 0 0 0 0 0 0 0 0 0 0 0 0 0 0 0 0
0 0 0 0 0 0 0 0 0 0 0 0 0 0 0 0 0 0 0 0 0 0 0 0 0 0 0 0 0 0 0 0 0 0 0 0 0 0
0 0 0 0 0 0 0 0 0 0 0 0 0 0 0 0 0 0 0 0 0 0 0 0 0 0 0 0 0 0 0 0 0 0 0 0 0 0
0 0 0 0 0 0 0 0 0 0 0 0 0 0 0 0 0 0 0 0 0 0 0 0 0 0 0 0 0 0 0 0 0 0 0 0 0 0
0 0 0 0 0 0 0 0 0 0 0 0 0 0 0 0 0 0 0 0 0 0 0 0 0 0 0 0 0 0 0 0 0 0 0 0 0 0
0 0 0 0 0 0 0 0 0 0 0 0 0 0 0 0 0 0 0 0 0 0 0 0 0 0 0 0 0 0 0 0 0 0 0 0 0 0
0 0 0 0 0 0 0 0 0 0 0 0 0 0 0 0 0 0 0 0 0 0 0 0 0 0 0 0 0 0 0 0 0 0 0 0 0 0
0 0 0 0 0 0 0 0 0 0 0 0 0 0 0 0 0 0 0 0 0 0 0 0 0 0 0 0 0 0 0 0 0 0 0 0 0 0
0 0 0 0 0 0 0 0 0 0 0 0 0 0 0 0 0 0 0 0 0 0 0 0 0 0 0 0 0 0 0 0 0 0 0 0 0 0
0 0 0 0 0 0 0 0 0 0 0 0 0 0 0 0 0 0 0 0 0 0 0 0 0 0 0 0 0 0 0 0 0 0 0 0 0 0
0 0 0 0 0 0 0 0 0 0 0 0 0 0 0 0 0 0 0 0 0 0 0 0 0 0 0 0 0 0 0 0 0 0 0 0 0 0
0 0 0 0 0 0 0 0 0 0 0 0 0 0 0 0 0 0 0 0 0 0 0 0 0 0 0 0 0 0 0 0 0 0 0 0 0 0
0 0 0 0 0 0 0 0 0 0 0 0 0 0 0 0 0 0 0 0 0 0 0 0 0 0 0 0 0 0 0 0 0 0 0 0 0 0
0 0 0 0 0 0 0 0 0 0 0 0 0 0 0 0 0 0 0 0 0 0 0 0 0 0 0 0 0 0 0 0 0 0 0 0 0 0
0 0 0 0 0 0 0 0 0 0 0 0 0 0 0 0 0 0 0 0 0 0 0 0 0 0 0 0 0 0 0 0 0 0 0 0 0 0
0 0 0 0 0 0 0 0 0 0 0 0 0 0 0 0 0 0 0 0 0 0 0 0 0 0 0 0 0 0 0 0 0 0 0 0 0 0
Wind_Speed
5 5 4 4 4 5 7 9 8 5 5 3 2 3 3 3 6 4 4 8 9 8 9 11 11 12 12 13 16 18 20 23 23 21 15 14 13 15
4 5 4 4 4 4 7 8 6 6 4 4 3 4 4 4 6 5 5 8 8 8 8 9 9 10 9 11 12 12 12 14 17 20 18 21 19 19
6 6 6 6 6 5 5 5 5 4 4 3 2 4 5 5 5 4 4 3 3 7 7 7 9 9 9 10 11 11 10 11 13 16 17 19 19 18
8 6 6 6 7 6 6 7 5 5 5 4 3 4 3 5 5 4 2 2 2 5 6 6 9 10 10 11 11 11 11 11 10 11 16 18 18 19
7 8 8 8 7 7 6 6 6 4 4 5 5 4 3 4 4 3 2 1 0 4 5 4 5 8 9 10 11 12 14 14 13 12 14 16 14 16
7 8 8 8 8 9 8 8 7 7 6 6 6 7 4 4 4 3 2 1 0 3 2 3 4 3 5 6 9 11 12 14 17 19 18 15 13 12
6 7 8 11 13 12 9 8 8 8 7 6 6 5 5 6 6 4 3 2 1 1 1 3 3 3 3 4 6 10 11 12 14 16 16 15 13 10
6 6 6 10 11 13 14 14 14 14 11 8 6 8 8 7 5 5 4 3 1 2 2 0 1 1 2 1 4 8 10 11 11 11 11 11 11 9
6 5 4 3 4 7 12 15 16 18 18 12 10 9 10 12 10 7 5 4 3 3 4 1 0 1 1 2 6 8 9 10 9 8 7 7 6 5
6 5 4 3 4 6 7 7 7 8 9 7 8 9 8 10 12 9 7 5 3 2 3 3 2 1 1 2 6 9 8 8 8 7 6 6 4 3
4 5 7 5 7 8 6 5 6 6 6 6 5 8 11 14 12 10 8 6 2 2 3 3 3 2 0 1 4 7 8 7 7 7 7 6 3 2
3 4 8 9 12 13 9 7 8 8 7 6 8 9 10 14 18 14 11 9 5 3 6 5 3 4 1 2 2 3 4 6 7 7 7 7 5 3
3 3 4 9 11 11 8 6 7 6 7 7 4 4 5 7 9 8 9 9 8 5 9 8 4 4 3 2 1 2 3 2 2 4 6 6 6 5
4 3 3 5 7 8 7 7 8 5 3 3 3 4 5 7 8 8 8 7 7 5 12 10 6 6 5 3 2 2 2 2 3 2 2 3 5 7
3 4 5 5 6 5 6 8 8 4 4 4 5 6 5 5 5 5 3 3 2 2 6 7 6 5 4 4 3 3 4 4 4 3 3 4 4 4
4 4 5 3 2 3 4 3 3 4 5 4 4 3 4 5 4 4 4 4 2 1 1 5 6 7 4 4 4 3 4 3 3 5 4 3 3 4
5 3 2 1 1 0 1 2 3 4 4 4 3 2 3 5 4 3 3 4 4 4 2 1 3 4 4 5 4 5 4 3 4 3 3 3 5 5
4 2 2 3 3 4 4 3 3 3 3 3 3 2 2 3 3 2 3 3 4 4 4 3 2 2 1 3 6 5 4 4 4 5 5 4 5 6
3 3 4 4 4 4 4 4 3 4 3 2 2 3 3 3 4 3 3 2 3 3 3 3 3 4 3 5 4 4 5 4 3 3 5 6 5 5
2 3 4 4 5 4 5 4 4 4 4 4 4 4 5 5 4 4 4 4 3 3 3 3 3 5 6 5 3 3 4 5 4 3 3 3 4 5
4 3 4 4 5 5 5 4 4 5 4 3 3 4 5 5 4 4 4 5 5 4 4 4 6 6 3 2 0 2 4 6 7 5 3 2 1 1
5 5 4 5 5 5 5 5 4 4 5 5 5 5 5 4 4 5 5 5 5 4 3 2 2 4 3 5 5 3 3 3 4 6 7 8 5 4
4 4 4 4 4 4 4 4 4 4 4 4 4 4 4 4 3 3 3 3 3 3 3 2 3 3 3 5 4 3 3 2 1 2 4 9 12 10
Wind_Direction
203 189 188 197 186 168 160 164 148 155 195 177 149 152 136 111 94 71 43 50 45 42 48 53 61 64 49 45 47 53 62 65 65 55 60 81 97 106
213 209 198 183 186 175 171 177 154 135 163 172 170 139 141 125 110 85 62 46 48 48 48 44 61 82 67 57 52 46 58 81 85 80 68 67 67 78
215 208 209 175 183 188 174 177 159 132 121 144 123 122 134 142 112 94 78 51 31 53 56 48 52 69 74 67 54 44 56 78 87 96 99 92 89 84
212 200 213 188 184 190 180 184 166 143 125 129 134 145 154 151 140 129 99 72 30 58 57 53 49 57 64 68 60 49 55 72 81 91 96 97 105 106
196 194 212 200 182 181 187 184 175 145 119 146 145 152 137 146 132 102 79 30 51 80 58 50 52 57 65 70 74 68 62 60 59 64 82 90 87 93
197 197 209 206 196 186 188 180 163 143 134 147 144 158 158 153 144 139 152 205 56 56 38 36 42 54 88 90 94 88 78 71 63 56 55 69 82 95
203 204 207 209 206 190 184 170 149 137 138 145 150 155 171 168 172 170 160 164 88 103 27 12 21 8 25 83 105 105 98 88 80 74 64 61 69 85
217 221 216 217 212 196 187 176 168 155 151 160 168 179 185 176 161 168 145 137 181 186 123 53 39 31 350 20 138 129 119 110 98 95 91 81 77 85
215 200 170 180 177 190 189 180 179 175 171 168 172 184 184 187 167 165 168 157 177 168 121 126 206 159 250 247 168 151 143 135 130 129 127 117 114 130
196 170 163 153 124 112 123 152 168 177 179 167 177 189 188 175 175 167 158 139 83 101 126 157 183 162 159 255 203 172 161 154 151 157 153 145 148 152
187 179 156 163 181 153 132 141 165 179 183 167 179 189 167 165 157 133 140 150 143 176 189 154 155 115 81 250 246 199 178 174 174 182 181 173 175 161
161 194 178 176 175 169 173 173 189 197 184 176 178 190 176 172 175 172 165 166 148 181 197 172 154 130 179 251 236 232 196 196 196 198 191 182 173 136
174 189 196 180 161 158 162 180 195 187 185 192 185 148 160 171 183 184 173 171 164 188 183 160 151 152 168 202 240 217 196 200 195 206 207 202 189 173
193 193 199 178 150 142 145 163 167 158 171 184 192 174 177 184 187 186 180 181 179 173 175 165 152 163 162 176 213 212 207 207 189 194 196 221 225 216
186 186 188 201 182 168 170 171 166 169 186 197 200 196 186 176 145 135 120 115 109 138 166 169 151 155 163 179 189 192 195 212 194 189 192 202 208 202
135 134 132 132 160 175 176 185 191 200 190 197 213 183 128 135 152 142 134 133 155 242 215 183 161 152 169 203 186 195 209 205 197 200 194 211 223 216
121 93 92 117 161 219 260 219 208 209 204 176 167 174 141 143 149 139 129 136 167 182 193 168 150 157 170 173 196 209 201 220 216 180 173 229 242 221
136 142 173 190 204 216 222 219 213 213 204 179 146 142 131 133 146 141 135 151 169 181 179 172 144 96 34 253 207 189 199 212 204 187 188 200 245 234
157 184 197 203 207 212 221 215 211 206 198 175 156 149 154 163 187 184 153 148 161 175 177 161 150 144 183 250 261 211 197 207 188 194 196 199 220 230
204 202 209 213 219 217 219 220 211 198 196 193 178 177 169 172 186 185 175 168 167 167 177 174 174 177 196 216 233 262 212 194 191 211 214 213 241 273
222 220 214 210 215 213 212 216 213 206 196 198 188 177 181 176 176 177 182 187 181 180 200 210 210 195 150 104 203 280 267 226 205 200 190 176 246 310
215 221 217 215 216 211 206 200 200 201 192 194 200 189 182 184 181 177 184 189 194 191 200 205 157 152 164 200 226 230 269 284 238 225 212 200 197 225
228 226 228 227 223 216 203 199 201 205 195 184 180 172 163 156 156 162 184 200 194 187 199 203 177 176 200 211 216 210 217 242 286 290 260 241 240 243